Weather History for Jonesboro, AR

Change the Weather History Date:

Sunday, February 3, 2013

  Actual Average Record
Temperature  
Mean Temperature 46 °F 39 °F  
Max Temperature 55 °F 48 °F 75 °F (1943)
Min Temperature 36 °F 30 °F 1 °F (1996)
Degree Days  
Heating Degree Days 19 26  
Month to date heating degree days 83 78  
Since 1 July heating degree days 2074 2374  
Cooling Degree Days 0 0  
Month to date cooling degree days 0 0  
Year to date cooling degree days 0 0  
Moisture  
Dew Point 27 °F    
Average Humidity 47    
Maximum Humidity 65    
Minimum Humidity 28    
Precipitation  
Precipitation 0.00 in 0.13 in 2.55 in (1939)
Month to date precipitation 0.00 0.38  
Year to date precipitation 5.37 3.81  
Snow  
Snow 0.00 in - 5.50 in (1905)
Month to date snowfall 0.0  
Since 1 July snowfall 7.0  
Snow Depth 0.00 in    
Sea Level Pressure  
Sea Level Pressure 30.15 in    
Wind  
Wind Speed 9 mph (WNW)    
Max Wind Speed 22 mph    
Max Gust Speed 31 mph    
Visibility 10 miles    
Events      
T = Trace of Precipitation, MM = Missing Value Source: NWS Daily Summary

Daily Weather History Graph

Daily Weather History Graph

Search for Another Location

Airport:

Trip Planner

Search our weather history database for the weather conditions in past years. The results will help you decide how hot, cold, wet, or windy it might be!

Date:

Astronomy

Feb. 03, 2013 Rise Set
Actual Time 7:01 AM CST 5:32 PM CST
Civil Twilight 6:34 AM CST 5:59 PM CST
Nautical Twilight 6:03 AM CST 6:29 PM CST
Astronomical Twilight 5:33 AM CST 6:59 PM CST
Moon 12:28 AM CST (2/3) 11:10 AM CST (2/3)
Length of Visible Light 11h 24m
Length of Day
10h 31m
Waning Gibbous, 48% of the Moon is Illuminated
Feb 3
Waning Gibbous
Feb 10
New
Feb 17
First Quarter
Feb 25
Full
Mar 4
Last Quarter

Hourly Weather History & Observations

Time (CST) Temp. Windchill Dew Point Humidity Pressure Visibility Wind Dir Wind Speed Gust Speed Precip Events Conditions
12:53 AM 41.0 °F 34.7 °F 30.9 °F 67% 30.14 in 10.0 mi WSW 10.4 mph - N/A   Clear
1:53 AM 45.0 °F 39.7 °F 30.0 °F 56% 30.12 in 10.0 mi WSW 10.4 mph - N/A   Clear
2:53 AM 46.0 °F 39.9 °F 30.9 °F 56% 30.09 in 10.0 mi WSW 13.8 mph - N/A   Clear
3:53 AM 46.0 °F 39.9 °F 30.9 °F 56% 30.12 in 10.0 mi West 13.8 mph - N/A   Clear
4:53 AM 42.1 °F 37.1 °F 30.9 °F 65% 30.14 in 10.0 mi West 8.1 mph - N/A   Clear
5:53 AM 42.8 °F 38.0 °F 30.2 °F 61% 30.14 in 10.0 mi West 8.1 mph - N/A   Clear
6:53 AM 42.1 °F 37.7 °F 30.0 °F 62% 30.16 in 10.0 mi West 6.9 mph - N/A   Clear
7:53 AM 45.0 °F 39.7 °F 28.9 °F 53% 30.18 in 10.0 mi NW 10.4 mph - N/A   Clear
8:53 AM 46.9 °F - 30.0 °F 52% 30.19 in 10.0 mi WNW 13.8 mph 20.7 mph N/A   Clear
9:53 AM 48.0 °F - 30.9 °F 52% 30.19 in 10.0 mi West 17.3 mph 23.0 mph N/A   Clear
10:53 AM 50.0 °F - 28.9 °F 44% 30.20 in 10.0 mi WNW 16.1 mph 27.6 mph N/A   Clear
11:53 AM 50.0 °F - 27.0 °F 41% 30.19 in 10.0 mi NW 16.1 mph 26.5 mph N/A   Clear
12:53 PM 53.1 °F - 26.1 °F 35% 30.18 in 10.0 mi NW 11.5 mph 19.6 mph N/A   Clear
1:53 PM 53.1 °F - 21.9 °F 30% 30.17 in 10.0 mi NW 18.4 mph 26.5 mph N/A   Clear
2:53 PM 54.0 °F - 21.9 °F 29% 30.17 in 10.0 mi NW 10.4 mph 19.6 mph N/A   Clear
3:53 PM 54.0 °F - 24.1 °F 31% 30.17 in 10.0 mi North 6.9 mph - N/A   Clear
4:53 PM 52.0 °F - 21.9 °F 31% 30.16 in 10.0 mi Calm Calm - N/A   Clear
5:53 PM 44.1 °F 42.5 °F 21.9 °F 42% 30.15 in 10.0 mi NE 3.5 mph - N/A   Clear
6:53 PM 39.0 °F - 26.1 °F 60% 30.16 in 10.0 mi Calm Calm - N/A   Clear
7:53 PM 37.9 °F 35.5 °F 24.1 °F 57% 30.15 in 10.0 mi ESE 3.5 mph - N/A   Clear
8:53 PM 37.9 °F 35.5 °F 26.1 °F 62% 30.15 in 10.0 mi ESE 3.5 mph - N/A   Clear
9:53 PM 39.9 °F - 26.1 °F 58% 30.14 in 10.0 mi Calm Calm - N/A   Clear
10:53 PM 39.9 °F 37.8 °F 27.0 °F 60% 30.12 in 10.0 mi SE 3.5 mph - N/A   Clear
11:53 PM 37.9 °F - 28.9 °F 70% 30.10 in 10.0 mi Calm Calm - N/A   Clear